AirNav   Phillips 66 Aviation Fuel
 
 288 users online  

KFUL Fullerton Municipal Airport
Fullerton, California, USA

GOING TO FULLERTON?


FAA INFORMATION EFFECTIVE 12 SEPTEMBER 2019

Location

FAA Identifier: FUL
Lat/Long: 33-52-19.2510N 117-58-47.2230W
33-52.320850N 117-58.787050W
33.8720142,-117.9797842
(estimated)
Elevation: 96 ft. / 29.3 m (surveyed)
Variation: 14E (1985)
From city: 3 miles W of FULLERTON, CA
Time zone: UTC -7 (UTC -8 during Standard Time)
Zip code: 92833

Airport Operations

Airport use: Open to the public
Activation date: 04/1940
Control tower: yes
ARTCC: LOS ANGELES CENTER
FSS: RIVERSIDE FLIGHT SERVICE STATION
NOTAMs facility: FUL (NOTAM-D service available)
Attendance: 0700-2100
Pattern altitude: 1100 ft. MSL
Wind indicator: lighted
Segmented circle: yes
Lights: WHEN ATCT CLSD ACTVT RLLS RWY 24; REIL RWY 06 & 24; PVASI RWY 06; PAPI RWY 24; MIRL RWY 06/24; TWY LGTS - CTAF.
Beacon: white-green (lighted land airport)
Operates sunset to sunrise.

Airport Communications

CTAF: 119.1
UNICOM: 122.95
ATIS: 125.05
WX ASOS: PHONE 714-870-1372
FULLERTON GROUND: 121.8 [0700-2100]
FULLERTON TOWER: 119.1 [0700-2100]
SOCAL APPROACH: 125.35
SOCAL DEPARTURE: 125.35
HAWWC DP: 125.35
WX ASOS at LGB (9 nm W): PHONE 562-424-0572
WX ASOS at SNA (13 nm SE): PHONE 714-424-0590
WX AWOS-3PT at EMT (13 nm N): 118.75 ((626) 444-1107)
WX AWOS-3PT at CPM (13 nm W): 127.150 (310-631-4958)
WX AWOS-3PT at POC (16 nm NE): 124.4 (909-596-1523)
WX ASOS at HHR (18 nm W): PHONE 310-973-8930
WX ASOS at CNO (18 nm E): PHONE 909-393-5823
WX AWOS-3PT at AJO (19 nm E): 132.175 (951-340-4764)
  • FOR CLNC DEL WHEN ATCT CLSD CALL SOCAL APCH (800) 448-3724.
  • SANTA ANA RCO 122.45 (RIVERSIDE RADIO)

Nearby radio navigation aids

VOR radial/distance  VOR name  Freq  Var
SLIr020/6.5SEAL BEACH VORTAC115.7015E
POMr203/15.7POMONA VORTAC110.4015E
ELBr299/17.1EL TORO VOR/DME117.2014E
PDZr248/22.6PARADISE VORTAC112.2015E
LAXr084/22.8LOS ANGELES VORTAC113.6015E
SMOr094/25.1SANTA MONICA VOR/DME110.8015E
RALr245/(26.9)RIVERSIDE VOR112.4014E
VNYr115/33.0VAN NUYS VOR/DME113.1015E
SXCr021/37.0SANTA CATALINA VORTAC111.4015E

Airport Services

Fuel available: 100LL JET-A
Parking: tiedowns
Airframe service: MAJOR
Powerplant service: MAJOR
Bottled oxygen: HIGH
Bulk oxygen: HIGH

Runway Information

Runway 6/24

Dimensions: 3121 x 75 ft. / 951 x 23 m
Surface: asphalt, in good condition
Weight bearing capacity: 
Single wheel: 12.5
Runway edge lights: medium intensity
RUNWAY 6  RUNWAY 24
Latitude: 33-52.263450N33-52.379333N
Longitude: 117-59.088333W117-58.487350W
Elevation: 84.9 ft.95.5 ft.
Traffic pattern: leftright
Runway heading: 063 magnetic, 077 true243 magnetic, 257 true
Displaced threshold: 427 ft.253 ft.
Markings: basic, in good conditionnonprecision, in good condition
Visual slope indicator: pulsating/steady burning VASI on left (4.00 degrees glide path)4-light PAPI on left (4.00 degrees glide path)
Approach lights: RLLS
Runway end identifier lights: yesyes
Touchdown point: yes, no lightsyes, no lights
Instrument approach: LOC/DME
Obstructions: none
+8 FT FENCE AT 55 FT & +15 FT STREET AT 65 FT FM APCH END RY 06.
23 ft. rr, 225 ft. from runway, 80 ft. left and right of centerline, 1:1 slope to clear
+8 FT FENCE AT 15 FT & +15 FT STREET AT 17 FT; POLE & RR AT 100 FT FM APCH END RY 24.

Helipad H1

Dimensions: 37 x 37 ft. / 11 x 11 m
Surface: concrete
Traffic pattern: leftleft

Airport Ownership and Management from official FAA records

Ownership: Publicly-owned
Owner: CITY OF FULLERTON
303 W. COMMONWEALTH AVE
FULLERTON, CA 92832
Phone 714-738-6310
Manager: BRENDAN O'REILLY
4011 W COMMONWEALTH AVE
FULLERTON, CA 92833-2537
Phone 714-738-6323

Airport Operational Statistics

Aircraft based on the field: 127
Single engine airplanes: 117
Multi engine airplanes: 6
Helicopters: 4
    
Aircraft operations: avg 206/day *
64% transient general aviation
36% local general aviation
<1% air taxi
<1% military
* for 12-month period ending 30 September 2018

Additional Remarks

ARPT HAS NOISE ABATEMENT PROCEDURES CTC AMGR (714) 738-6323.
RY 06 CALM WIND RY.
PORTIONS OF TWY A BTN INTERSECTION F & WEST END NOT VSBL FM ATCT.
FOR NOISE ABATEMENT RY 06 PREFERRED FOR TKOF; FOLLOW RR TRACKS TO EAST WITH NO TURNS BLO 1000 FT AGL. RY 24 DEP CLIMB TO 700 FT AGL PRIOR TO TURNS.
(84) SEGMENTED CIRCLE LGTD.
LGTD 750 FT TOWER 1.75 MILES WEST OF ARPT ON HEADING OF 285 DEG FROM ARPT.

Instrument Procedures

NOTE: All procedures below are presented as PDF files. If you need a reader for these files, you should download the free Adobe Reader.

NOT FOR NAVIGATION. Please procure official charts for flight.
FAA instrument procedures published for use from 12 September 2019 at 0901Z to 10 October 2019 at 0900Z.

 
STARs - Standard Terminal Arrivals
KAYOH SEVEN   download (304KB)
 
IAPs - Instrument Approach Procedures
RNAV (GPS) RWY 24 **CHANGED**   download (220KB)
LOC/DME RWY 24 **CHANGED**   download (251KB)
VOR-A **CHANGED**   download (199KB)
NOTE: Special Alternate Minimums apply   download (18KB)
 
Departure Procedures
ANAHEIM ONE **CHANGED**   2 pages: [1] [2] (361KB)
HAWWC THREE (RNAV)   download (177KB)
NOTE: Special Take-Off Minimums/Departure Procedures apply   download (132KB)

Other nearby airports with instrument procedures:

KSLI - Los Alamitos Army Airfield (6 nm SW)
KLGB - Long Beach Airport (Daugherty Field) (9 nm W)
KSNA - John Wayne-Orange County Airport (13 nm SE)
KEMT - San Gabriel Valley Airport (13 nm N)
KPOC - Brackett Field Airport (16 nm NE)
KHHR - Jack Northrop Field/Hawthorne Municipal Airport (18 nm W)
KCNO - Chino Airport (18 nm E)
KTOA - Zamperini Field Airport (18 nm W)
KAJO - Corona Municipal Airport (19 nm E)
 
Loc | Ops | Rwys | IFR | FBO | Links
Com | Nav | Svcs | Stats | Notes

AFI
 
Area around KFUL (Fullerton Municipal Airport)
 
Road maps at: MapQuest Bing Google
 
Aerial photo
WARNING: Photo may not be current or correct
Aerial photo of KFUL (Fullerton Municipal Airport)
Photo courtesy of focalflight.com
Photo taken 09-Feb-2017
looking west.

Do you have a better or more recent aerial photo of Fullerton Municipal Airport that you would like to share? If so, please send us your photo.

 
Sectional chart

 
Airport diagram
CAUTION: Diagram may not be current
Diagram of KFUL (Fullerton Municipal Airport)
Download PDF
of official airport diagram from the FAA

 
Airport distance calculator
Flying to Fullerton Municipal Airport? Find the distance to fly.

From to KFUL

Sunrise and sunset
Times for 24-Sep-2019
 Local
(UTC-7)
 Zulu
(UTC)
Morning civil twilight06:1813:18
Sunrise06:4213:42
Sunset18:4501:45
Evening civil twilight19:1002:10

Current date and time
Zulu (UTC)  24-Sep-2019 09:02:36
Local (UTC-7)  24-Sep-2019 02:02:36
 
METAR
KFUL 240853Z AUTO 00000KT 9SM CLR 19/16 A2992 RMK AO2 SLP131 T01890161 58001
KSLI 
7nm SW 
240858Z AUTO 00000KT 10SM CLR 16/14 A2993 RMK AO2 SLP138 T01590144 58001
KLGB 
9nm W 
240853Z AUTO 00000KT 10SM CLR 19/16 A2992 RMK AO2 SLP131 T01940156 58003
KEMT 
12nm N 
240145Z 21007KT 10SM CLR 24/17 A2990
KSNA 
14nm SE 
240853Z AUTO 09003KT 9SM CLR 19/16 A2992 RMK AO2 SLP132 T01940156 58003
KCQT 
17nm NW 
240858Z AUTO 00000KT 7SM SCT007 19/17 A2992 RMK AO2 T01940167
KPOC 
17nm NE 
240347Z 24005KT 10SM CLR 20/15 A2995 RMK LAST
KTOA 
18nm W 
240247Z 28006KT 10SM SKC 18/16 A2991 RMK LAST
KHHR 
18nm W 
240853Z AUTO 00000KT 9SM CLR 19/16 A2993 RMK AO2 SLP134 T01890161 55002
KAJO 
19nm E 
240856Z AUTO 00000KT 10SM CLR 17/16 A2994 RMK AO2 SLP132 T01720156
TAF
KSLI 
7nm SW 
240500Z 2405/2511 VRB06KT 9999 SCT015 QNH2989INS TEMPO 2412/2418 4800 BR BKN010 BECMG 2417/2418 27009KT 9999 FEW020 SCT030 QNH2984INS TX27/2421Z TN16/2412Z
KLGB 
9nm W 
240747Z 2408/2506 VRB03KT P6SM SKC FM240900 VRB03KT P6SM BKN010 FM241600 VRB03KT P6SM FEW010 FM242100 20008KT P6SM SKC FM250000 30008KT P6SM SKC FM250500 VRB03KT P6SM SKC
KSNA 
14nm SE 
240520Z 2406/2506 VRB03KT P6SM FEW009 TEMPO 2411/2415 BKN008 FM241500 VRB05KT P6SM SCT010 WS020/07017KT FM242000 24011KT P6SM SCT100 FM250200 VRB05KT P6SM FEW007
NOTAMs
Click for the latest NOTAMs
NOTAMs are issued by the DoD/FAA and will open in a separate window not controlled by AirNav.

 

 
 

FBO, Fuel Providers, and Aircraft Ground Support

  
 Business Name 
 
 Contact 
 
 Services / Description 
 
Fuel Prices
 
Comments
  
General Aviation Co., Inc.
No ramp fees
UNICOM 122.95
714-526-6611
714-526-0921
[web site]
[email]
At General Aviation Co, Inc., we strive to maintain the excellent and personalized customer service we are known for.

We offer:
-100LL Avgas, Jet-A Fuel
-Aircraft Maintenance
-Executive Hangar Space, complete with staging/fueling service
-One night free with fuel purchase (no minimum)
-No landing fees, no ramp fees
-Low fuel prices
-Rental cars also available (Hertz, Enterprise, AVIS)
-Crew Car available (first come, first serve)
-Line Service Personnel certified by NATA Safety 1st.

Not taking fuel this time?
Stop by for a cup of Starbucks coffee, or one of our cookies, baked in house!
More info and photos of General Aviation Co., Inc.
 
NATA Safety 1st   U.S. Government AIR Card   WingPoints™ Rewards   Crew car   Avis   Enterprise Rent-A-Car   Hertz   Wireless Internet Access (WiFi)   National Business Aviation Association  
 
Phillips 66
100LL Jet A
FS $5.39 $5.54 
SS $5.39 $5.17 
 Updated 13-Sep-2019
 
   9 read write
Aviation Facilities, Inc. 714-870-9931
714-773-0741
[web site]
Aviation fuel, Aircraft parking (ramp or tiedown), Passenger terminal and lounge, Pilot school (FAR Part 141), Aerial tours / aerial sightseeing, ...

More info about Aviation Facilities, Inc.
EPIC
100LL
PA $5.20 
PS $4.95 
 Updated 20-Sep-2019
 
   1 read write
FS=Full service
PA=Pilot-Assisted
PS=Pump service
SS=Self service
Update Fuel Prices
 

Aviation Businesses, Services, and Facilities

  
 Business Name 
 
 Contact 
 
 Services / Description 
 
Distance
 
Comments
  
Leading Edge Avionics
Leading Edge Avionics
toll-free 1-855-955-6151
[web site]
[email]

Like us on facebook See us on instagram Follow us on twitter
Leading Edge Avionics is a FAA Certified Part 145 Repair Station (137R236D) that provides outstanding avionics repair and installation services for all General Aviation aircraft from business jets to helicopters to single engine airplanes. We are committed to delivering our customers with services that ensure uncompromised safety and the highest quality of workmanship and reliability, while exceeding our clients' expectations on all levels. 24/7 AOG Service is also available at all Southern California airports, so call us at (855) 955-6151 and let us exceed all your service expectations!
More info and photos of Leading Edge Avionics
located at KSNA  
   write
 

Would you like to see your business listed on this page?

 If your business provides an interesting product or service to pilots, flight crews, aircraft, or users of the Fullerton Municipal Airport, you should consider listing it here.  To start the listing process, click on the button below
 
Add a business
 

Other Pages about Fullerton Municipal Airport

www.ci.fullerton.ca.us/...
 
Update a link
 
Copyright © AirNav, LLC. All rights reserved. Privacy Policy  Contact